Terug naar catalogus

COSMOS 2419

GLONASS

ActiefNavigatieMEO
NORAD 28915·PAYLOAD·🇷🇺 Russia

Gelanceerd Dec 25, 2005 vanaf Baikonur Cosmodrome

Loading…

Volgende Passages (komende 24 uur)

TLE

VersSource: Space-Track

Epoch: Sep 13, 2026, 09:35 UTC

1 28915U 05050A   26256.39947172 -.00000052  00000-0  00000-0 0  9996
2 28915  65.5145 313.1315 0013851 328.6134  29.5152  2.13108287161245

Volg COSMOS 2419 in realtime met AllMySat

Download on the App Store